Brisbane, Australia

7:25 PM AEST on April 27, 2017 (GMT +1000)
Brisbane International

Weather History for YBBN - September, 2013

Change the Weather History Date:

Monday, September 9, 2013

  Actual Average Record
Temperature  
Mean Temperature 63 °F -  
Max Temperature 74 °F 76 °F 84 °F (2000)
Min Temperature 52 °F 56 °F 47 °F (2015)
Degree Days  
Heating Degree Days 2    
Growing Degree Days 13 (Base 50)    
Moisture  
Dew Point 54 °F    
Average Humidity 69    
Maximum Humidity 94    
Minimum Humidity 31    
Precipitation  
Precipitation 0.00 in 0.07 in - ()
Sea Level Pressure  
Sea Level Pressure 30.15 in    
Wind  
Wind Speed 6 mph ()    
Max Wind Speed 15 mph    
Max Gust Speed -    
Visibility 8.8 miles    
Events Fog    
Averages and records for this station are not official NWS values.
T = Trace of Precipitation, MM = Missing Value Source: Averaged Metar Reports

Daily Weather History Graph

Daily Weather History Graph

Search for Another Location

Airport or City:

Trip Planner

Search our weather history database for the weather conditions in past years. The results will help you decide how hot, cold, wet, or windy it might be!

Date:

Astronomy

Sep. 09, 2013 Rise Set
Actual Time 5:52 AM AEST 5:37 PM AEST
Civil Twilight 5:29 AM AEST 6:01 PM AEST
Nautical Twilight 5:02 AM AEST 6:28 PM AEST
Astronomical Twilight 4:35 AM AEST 6:55 PM AEST
Moon 7:53 AM AEST (9/9) 9:12 PM AEST (9/9)
Length of Visible Light 12h 31m
Length of Day
11h 45m
Waxing Crescent, 14% of the Moon is Illuminated
Sep 9
Waxing Crescent
Sep 13
First Quarter
Sep 19
Full
Sep 27
Last Quarter
Oct 5
New

Hourly Weather History & Observations

Time (AEST) Temp. Dew Point Humidity Pressure Visibility Wind Dir Wind Speed Gust Speed Precip Events Conditions
12:00 AM 61 °F 56 °F 77% 30.22 in 19 mi West 5.8 mph - -   Partly Cloudy
12:00 AM 60.8 °F 55.4 °F 82% 30.21 in - West 5.8 mph - N/A   Clear
12:30 AM 60.8 °F 55.4 °F 82% 30.21 in - SW 4.6 mph - N/A   Clear
1:00 AM 59 °F 54 °F 77% 30.23 in - WSW 3.5 mph - -  
1:00 AM 59.0 °F 53.6 °F 82% 30.21 in - WSW 3.5 mph - N/A   Clear
1:30 AM 59.0 °F 53.6 °F 82% 30.21 in - SSW 3.5 mph - N/A   Clear
2:00 AM 57.2 °F 51.8 °F 82% 30.18 in - Calm Calm - N/A   Clear
2:30 AM 57.2 °F 51.8 °F 82% 30.18 in - Calm Calm - N/A   Clear
3:00 AM 58 °F 53 °F 77% 30.19 in 19 mi NNE 3.5 mph - -   Partly Cloudy
3:00 AM 57.2 °F 53.6 °F 88% 30.18 in - NNE 3.5 mph - N/A   Clear
3:30 AM 55.4 °F 51.8 °F 88% 30.18 in - WSW 5.8 mph - N/A   Clear
4:00 AM 54 °F 51 °F 88% 30.18 in - WSW 4.6 mph - -  
4:00 AM 53.6 °F 51.8 °F 94% 30.18 in - WSW 4.6 mph - N/A   Clear
4:30 AM 53.6 °F 51.8 °F 94% 30.18 in - SSW 3.5 mph - N/A   Clear
5:00 AM 53.6 °F 51.8 °F 94% 30.18 in - SW 1.2 mph - N/A   Clear
5:30 AM 53.6 °F 51.8 °F 94% 30.18 in - SW 4.6 mph - N/A   Clear
6:00 AM 53 °F 52 °F 93% 30.21 in 19 mi West 3.5 mph - - Fog Patches of Fog
6:00 AM 53.6 °F 51.8 °F 94% 30.18 in 6.2 mi West 3.5 mph - N/A Fog Shallow Fog
6:30 AM 53.6 °F 51.8 °F 94% 30.21 in 6.2 mi SSW 4.6 mph - N/A Fog Shallow Fog
7:00 AM 58 °F 55 °F 86% 30.23 in - SSW 3.5 mph - -  
7:00 AM 57.2 °F 55.4 °F 94% 30.21 in - SSW 3.5 mph - N/A   Clear
7:30 AM 60.8 °F 55.4 °F 82% 30.21 in - SSW 5.8 mph - N/A   Clear
8:00 AM 64.4 °F 55.4 °F 73% 30.24 in - SSW 6.9 mph - N/A   Clear
8:30 AM 66.2 °F 53.6 °F 64% 30.24 in 6.2 mi SSW 6.9 mph - N/A   Partly Cloudy
9:00 AM 70 °F 54 °F 47% 30.23 in 12 mi WSW 4.6 mph - -   Haze
9:00 AM 69.8 °F 53.6 °F 56% 30.21 in 6.2 mi WSW 4.6 mph - N/A   Partly Cloudy
9:30 AM 71.6 °F 55.4 °F 57% 30.21 in 6.2 mi NNW 6.9 mph - N/A   Partly Cloudy
10:00 AM 72 °F 53 °F 41% 30.23 in - North 8.1 mph - -  
10:00 AM 71.6 °F 53.6 °F 53% 30.21 in 6.2 mi North 8.1 mph - N/A   Partly Cloudy
10:30 AM 71.6 °F 53.6 °F 53% 30.21 in 6.2 mi North 8.1 mph - N/A   Partly Cloudy
11:00 AM 73.4 °F 51.8 °F 47% 30.18 in 6.2 mi North 10.4 mph - N/A   Partly Cloudy
11:30 AM 73.4 °F 50.0 °F 44% 30.18 in 6.2 mi North 10.4 mph - N/A   Partly Cloudy
12:00 PM 72 °F 52 °F 38% 30.17 in 19 mi NNE 10.4 mph - -   Partly Cloudy
12:00 PM 73.4 °F 51.8 °F 47% 30.15 in 6.2 mi NNE 10.4 mph - N/A   Partly Cloudy
12:30 PM 73.4 °F 51.8 °F 47% 30.15 in 6.2 mi NNE 9.2 mph - N/A   Partly Cloudy
1:00 PM 74 °F 49 °F 31% 30.14 in - NE 10.4 mph - -  
1:00 PM 73.4 °F 50.0 °F 44% 30.12 in 6.2 mi NE 10.4 mph - N/A   Partly Cloudy
1:30 PM 73.4 °F 48.2 °F 41% 30.09 in 6.2 mi NE 11.5 mph - N/A   Partly Cloudy
2:00 PM 73.4 °F 50.0 °F 44% 30.09 in 6.2 mi NNE 11.5 mph - N/A   Partly Cloudy
2:30 PM 73.4 °F 51.8 °F 47% 30.09 in 6.2 mi NE 12.7 mph - N/A   Partly Cloudy
3:00 PM 73 °F 53 °F 38% 30.09 in 19 mi NE 12.7 mph - -   Partly Cloudy
3:00 PM 73.4 °F 51.8 °F 47% 30.09 in 6.2 mi NE 12.7 mph - N/A   Partly Cloudy
3:30 PM 71.6 °F 53.6 °F 53% 30.06 in 6.2 mi NNE 11.5 mph - N/A   Partly Cloudy
4:00 PM 72 °F 56 °F 47% 30.09 in - NNE 10.4 mph - -  
4:00 PM 71.6 °F 55.4 °F 57% 30.06 in - NNE 10.4 mph - N/A   Clear
4:30 PM 69.8 °F 53.6 °F 56% 30.06 in - NNE 13.8 mph - N/A   Clear
5:00 PM 69.8 °F 57.2 °F 64% 30.06 in - North 15.0 mph - N/A   Clear
5:30 PM 68.0 °F 57.2 °F 68% 30.06 in 6.2 mi NNE 15.0 mph - N/A   Partly Cloudy
6:00 PM 66 °F 57 °F 65% 30.09 in 19 mi NNE 11.5 mph - -   Partly Cloudy
6:00 PM 66.2 °F 57.2 °F 73% 30.06 in 6.2 mi NNE 11.5 mph - N/A   Partly Cloudy
6:30 PM 66.2 °F 57.2 °F 73% 30.09 in 6.2 mi North 13.8 mph - N/A   Partly Cloudy
7:00 PM 66 °F 58 °F 68% 30.10 in - NNE 11.5 mph - -  
7:00 PM 66.2 °F 57.2 °F 73% 30.09 in 6.2 mi NNE 11.5 mph - N/A   Partly Cloudy
7:30 PM 66.2 °F 57.2 °F 73% 30.09 in 6.2 mi NNE 11.5 mph - N/A   Partly Cloudy
8:00 PM 66.2 °F 59.0 °F 78% 30.09 in 6.2 mi North 12.7 mph - N/A   Partly Cloudy
8:30 PM 66.2 °F 59.0 °F 78% 30.09 in 6.2 mi NNE 11.5 mph - N/A   Partly Cloudy
9:00 PM 67 °F 60 °F 72% 30.11 in 19 mi NNE 11.5 mph - -   Partly Cloudy
9:00 PM 66.2 °F 60.8 °F 83% 30.09 in 6.2 mi NNE 11.5 mph - N/A   Mostly Cloudy
9:30 PM 66.2 °F 62.6 °F 88% 30.09 in 6.2 mi North 15.0 mph - N/A   Scattered Clouds
10:00 PM 66 °F 61 °F 79% 30.10 in - North 10.4 mph - -  
10:00 PM 66.2 °F 60.8 °F 83% 30.09 in 6.2 mi North 10.4 mph - N/A   Partly Cloudy
10:30 PM 66.2 °F 60.8 °F 83% 30.06 in 6.2 mi North 10.4 mph - N/A   Scattered Clouds
11:00 PM 64.4 °F 59.0 °F 83% 30.06 in 6.2 mi NNW 8.1 mph - N/A   Partly Cloudy